CW4745 Weather Reports


time (UTC)temp
C
wind
direction
speed
KPH
gust
KPH
rain 1hr
cm
rain 24hr
cm
rain mn
cm
humidity
%
barometer
mb
20211025044800 9 178 6.4 11.3 0.05 0.05 0.05 85 1015.2
20211025043800 9 172 3.2 11.3 0.05 0.05 0.05 84 1015.3
20211025042759 8 165 6.4 14.5 0.03 0.03 0.03 84 1015.5
20211025041759 8 168 4.8 16.1 0.03 0.03 0.03 84 1015.4
20211025040807 8 164 4.8 16.1 0.03 0.03 0.03 83 1015.4
20211025035803 8 179 6.4 14.5 0.03 0.03 0.03 83 1015.5
20211025034806 8 157 6.4 14.5 0.03 0.03 0.03 83 1015.4
20211025033756 8 207 9.7 19.3 0.00 0.00 0.00 82 1015.4
20211025032756 8 165 8.0 17.7 0.00 0.00 0.00 82 1015.4
20211025031756 8 157 9.7 19.3 0.00 0.00 0.00 82 1015.5
20211025030757 8 162 9.7 20.9 0.00 0.00 0.00 82 1015.7
20211025025757 8 182 9.7 19.3 0.00 0.00 0.00 82 1015.7
20211025024757 8 151 9.7 17.7 0.00 0.00 0.00 82 1015.7
20211025023748 8 164 8.0 22.5 0.00 0.00 0.00 82 1015.8
20211025022747 8 200 11.3 20.9 0.00 0.00 0.00 82 1015.8
20211025021744 8 161 9.7 17.7 0.00 0.00 0.00 82 1015.8
20211025020744 8 172 9.7 17.7 0.00 0.00 0.00 82 1015.9
20211025015743 8 180 8.0 19.3 0.00 0.00 0.00 82 1016.0
20211025014744 8 171 8.0 17.7 0.00 0.00 0.00 82 1016.0
20211025013755 8 182 9.7 11.3 0.00 0.00 0.00 82 1016.0
20211025012743 8 175 8.0 14.5 0.00 0.00 0.00 82 1016.1
20211025011743 8 123 8.0 11.3 0.00 0.00 0.00 82 1016.1
20211025010755 8 161 8.0 17.7 0.00 0.00 0.00 82 1016.2
20211025005748 8 189 8.0 19.3 0.00 0.00 0.00 82 1016.2
20211025004742 8 152 8.0 20.9 0.00 0.00 0.00 82 1016.4
20211025003754 8 195 8.0 16.1 0.00 0.00 0.00 82 1016.4
20211025002742 8 165 6.4 14.5 0.00 0.00 0.00 82 1016.4
20211025001741 8 158 6.4 16.1 0.00 0.00 0.00 82 1016.5
20211025000740 8 176 6.4 14.5 0.00 0.00 0.00 82 1016.6
20211024235740 8 182 6.4 16.1 0.00 0.00 0.00 82 1016.7
20211024234746 8 178 6.4 17.7 0.00 0.00 0.00 82 1016.5
20211024233752 8 185 6.4 17.7 0.00 0.00 0.00 82 1016.6
20211024232743 8 165 6.4 14.5 0.00 0.00 0.00 81 1016.5
20211024231742 8 175 8.0 14.5 0.00 0.00 0.00 81 1016.6
20211024230740 8 176 6.4 14.5 0.00 0.00 0.00 81 1016.6
20211024225742 8 171 6.4 16.1 0.00 0.00 0.00 81 1016.7
20211024224751 8 188 8.0 14.5 0.00 0.00 0.00 81 1016.7
20211024223738 8 185 8.0 14.5 0.00 0.00 0.00 81 1016.8
20211024222749 8 154 6.4 11.3 0.00 0.00 0.00 81 1016.9
20211024221737 8 173 8.0 16.1 0.00 0.00 0.00 81 1016.8
20211024220738 8 172 6.4 14.5 0.00 0.00 0.00 80 1016.9
20211024215743 8 176 6.4 11.3 0.00 0.00 0.00 81 1017.0
20211024214738 8 193 4.8 11.3 0.00 0.00 0.00 81 1017.0
20211024213737 8 169 8.0 9.7 0.00 0.00 0.00 81 1017.1
20211024212746 7 175 4.8 9.7 0.00 0.00 0.00 81 1016.9
20211024211737 7 175 6.4 9.7 0.00 0.00 0.00 82 1017.0
20211024210736 7 171 6.4 11.3 0.00 0.00 0.00 82 1017.1
20211024205738 7 162 4.8 9.7 0.00 0.00 0.00 82 1017.3
20211024204736 7 162 6.4 11.3 0.00 0.00 0.00 81 1017.3
20211024203748 7 155 4.8 9.7 0.00 0.00 0.00 81 1017.4
20211024202735 7 157 6.4 11.3 0.00 0.00 0.00 81 1017.4
20211024201740 7 149 4.8 8.0 0.00 0.00 0.00 81 1017.5
20211024200736 7 172 6.4 9.7 0.00 0.00 0.00 81 1017.6
20211024195739 7 142 6.4 9.7 0.00 0.00 0.00 81 1017.6
20211024194735 7 159 4.8 11.3 0.00 0.00 0.00 81 1017.7
20211024193733 7 161 4.8 9.7 0.00 0.00 0.00 82 1017.7
20211024192733 7 164 4.8 8.0 0.00 0.00 0.00 81 1017.7
20211024191734 7 158 4.8 8.0 0.00 0.00 0.00 81 1017.8
20211024190735 7 155 3.2 6.4 0.00 0.00 0.00 81 1018.0
20211024185739 7 165 3.2 6.4 0.00 0.00 0.00 80 1018.0
20211024184733 7 148 3.2 8.0 0.00 0.00 0.00 80 1018.1
20211024183732 8 149 4.8 6.4 0.00 0.00 0.00 80 1018.1
20211024182733 8 147 3.2 8.0 0.00 0.00 0.00 80 1018.2
20211024181733 8 148 3.2 8.0 0.00 0.00 0.00 79 1018.2
20211024180734 8 161 6.4 9.7 0.00 0.00 0.00 79 1018.3
20211024175733 8 154 3.2 9.7 0.00 0.00 0.00 79 1018.3
20211024174732 8 144 4.8 9.7 0.00 0.00 0.00 79 1018.2
20211024173738 8 151 4.8 8.0 0.00 0.00 0.00 79 1018.2
20211024172733 8 186 6.4 11.3 0.00 0.00 0.00 78 1018.1
20211024171733 9 145 3.2 9.7 0.00 0.00 0.00 78 1018.1
20211024170744 9 176 6.4 11.3 0.00 0.00 0.00 78 1018.2
20211024165744 9 154 6.4 11.3 0.00 0.00 0.00 78 1018.2
20211024164733 10 147 3.2 9.7 0.00 0.00 0.00 77 1018.2
20211024163740 10 149 4.8 14.5 0.00 0.00 0.00 77 1018.3
20211024162732 10 166 8.0 14.5 0.00 0.00 0.00 77 1018.4
20211024161734 10 162 4.8 16.1 0.00 0.00 0.00 77 1018.5
20211024160736 10 158 6.4 14.5 0.00 0.00 0.00 77 1018.5
20211024155732 11 173 6.4 14.5 0.00 0.00 0.00 76 1018.5
20211024154732 11 176 9.7 19.3 0.00 0.00 0.00 76 1018.6
20211024153735 11 155 6.4 14.5 0.00 0.00 0.00 76 1018.7
20211024152743 11 154 8.0 14.5 0.00 0.00 0.00 76 1018.8
20211024151732 11 188 8.0 16.1 0.00 0.00 0.00 75 1018.9
20211024150745 12 152 6.4 14.5 0.00 0.00 0.00 75 1018.9
20211024145734 12 169 8.0 17.7 0.00 0.00 0.00 75 1019.0
20211024144735 12 159 8.0 14.5 0.00 0.00 0.00 75 1019.0
20211024143733 12 137 9.7 16.1 0.00 0.00 0.00 73 1019.2
20211024142733 12 165 8.0 17.7 0.00 0.00 0.00 73 1019.3
20211024141732 12 186 9.7 20.9 0.00 0.00 0.00 73 1019.4
20211024140734 12 164 9.7 20.9 0.00 0.00 0.00 72 1019.4
20211024135745 12 142 9.7 22.5 0.00 0.00 0.00 71 1019.7
20211024134732 13 161 11.3 20.9 0.00 0.00 0.00 69 1019.8
20211024133739 13 162 4.8 20.9 0.00 0.00 0.00 69 1020.0
20211024132733 13 152 9.7 24.1 0.00 0.00 0.00 68 1020.0
20211024131733 13 144 14.5 25.7 0.00 0.00 0.00 68 1020.2
20211024130734 13 182 8.0 20.9 0.00 0.00 0.00 69 1020.4
20211024125733 13 134 11.3 17.7 0.00 0.00 0.00 69 1020.5
20211024124732 13 195 9.7 19.3 0.00 0.00 0.00 68 1020.6
20211024123732 13 168 11.3 19.3 0.00 0.00 0.00 69 1020.7
20211024122737 13 157 11.3 20.9 0.00 0.00 0.00 68 1020.8
20211024121744 13 135 11.3 20.9 0.00 0.00 0.00 69 1021.0
20211024120744 13 168 4.8 17.7 0.00 0.00 0.00 69 1021.1
20211024115732 13 148 9.7 16.1 0.00 0.00 0.00 69 1021.2
20211024114732 13 127 8.0 20.9 0.00 0.00 0.00 69 1021.3
20211024113734 13 144 8.0 17.7 0.00 0.00 0.00 68 1021.4
20211024112733 13 145 9.7 17.7 0.00 0.00 0.00 70 1021.5
20211024111733 13 130 9.7 19.3 0.00 0.00 0.00 70 1021.6
20211024110746 13 171 6.4 17.7 0.00 0.00 0.00 71 1021.7
20211024105732 12 196 8.0 19.3 0.00 0.00 0.00 71 1022.0
20211024104732 12 124 8.0 16.1 0.00 0.00 0.00 71 1022.0
20211024103733 12 116 9.7 17.7 0.00 0.00 0.00 71 1022.1
20211024102746 12 169 3.2 17.7 0.00 0.00 0.00 71 1022.2
20211024101732 12 157 8.0 17.7 0.00 0.00 0.00 72 1022.1
20211024100732 12 159 9.7 16.1 0.00 0.00 0.00 73 1022.2
20211024095732 12 148 6.4 14.5 0.00 0.00 0.00 74 1022.3
20211024094733 11 138 9.7 16.1 0.00 0.00 0.00 74 1022.3
20211024093733 11 135 6.4 17.7 0.00 0.00 0.00 75 1022.5
20211024092733 11 195 9.7 16.1 0.00 0.00 0.00 75 1022.5
20211024091733 11 172 8.0 17.7 0.00 0.00 0.00 75 1022.5
20211024090732 10 141 8.0 17.7 0.00 0.00 0.00 76 1022.5
20211024085732 10 137 6.4 17.7 0.00 0.00 0.00 76 1022.6
20211024084732 10 173 8.0 16.1 0.00 0.00 0.00 77 1022.7
20211024083738 9 166 8.0 14.5 0.00 0.00 0.00 78 1022.6
20211024082732 8 148 4.8 11.3 0.00 0.00 0.00 79 1022.7
20211024081732 8 162 6.4 14.5 0.00 0.00 0.00 80 1022.8
20211024080734 7 149 9.7 16.1 0.00 0.00 0.00 81 1022.8
20211024075736 7 152 9.7 14.5 0.00 0.00 0.00 81 1022.9
20211024074733 7 152 8.0 14.5 0.00 0.00 0.00 83 1022.9
20211024073733 6 138 8.0 16.1 0.00 0.00 0.00 84 1023.1
20211024072736 6 140 8.0 16.1 0.00 0.00 0.00 84 1023.1
20211024071733 6 149 6.4 16.1 0.00 0.00 0.00 84 1023.1
20211024070733 6 159 8.0 16.1 0.00 0.00 0.00 84 1023.0
20211024065739 5 173 8.0 14.5 0.00 0.00 0.00 84 1022.9
20211024064733 5 137 6.4 11.3 0.00 0.00 0.00 84 1023.0
20211024063737 5 145 6.4 11.3 0.00 0.00 0.00 84 1023.0
20211024062733 6 151 6.4 14.5 0.00 0.00 0.00 84 1023.1
20211024061737 6 154 8.0 14.5 0.00 0.00 0.00 84 1023.2
20211024060740 6 133 6.4 14.5 0.00 0.00 0.00 84 1023.2
20211024055732 6 179 6.4 11.3 0.00 0.00 0.00 84 1023.3
20211024054735 6 145 8.0 14.5 0.00 0.00 0.00 84 1023.3
20211024053735 6 152 6.4 16.1 0.00 0.00 0.00 83 1023.4
20211024052737 6 149 9.7 14.5 0.00 0.00 0.00 83 1023.5
20211024051733 6 133 6.4 11.3 0.00 0.00 0.00 83 1023.5
20211024050732 6 157 8.0 14.5 0.00 0.00 0.00 83 1023.5
20211024045739 6 154 6.4 14.5 0.00 0.00 0.00 83 1023.6